Location: Martley
(52.2333°N, 2.3667°W)
Time: 20:30:25
(UTC+00:00)

Cosmos 1627 Rocket - Pass Details

Date: 11 December 2019
Orbit: 951 x 1003 km, 82.9° (Epoch: 21 January)

Event Time Altitude Azimuth Distance (km) Brightness Sun altitude
Exits shadow 05:15:06 - 349° (N) 3,105 7.0 -25.1°
Reaches altitude 10° 05:16:07 10° 349° (N) 2,727 6.7 -24.9°
Maximum altitude 05:22:23 86° 263° (W) 990 4.4 -24.0°
Drops below altitude 10° 05:28:42 10° 174° (S) 2,744 7.0 -23.0°
Sets 05:31:13 0° 174° (S) 3,696 7.7 -22.7°
